EW2670 Weather Reports


Display with metric or nautical units.
time (UTC)temp
F
wind
direction
speed
MPH
gust
MPH
rain 1hr
in
rain 24hr
in
rain mn
in
humidity
%
barometer
mb
20260906052016 72 90 1.0 3.0 0.00 0.00 0.00 45 1010.0
20260906051516 72 0.0 2.0 0.00 0.00 0.00 45 1010.2
20260906051016 72 90 1.0 3.0 0.00 0.00 0.00 45 1010.0
20260906050516 73 0.0 2.0 0.00 0.00 0.00 44 1009.9
20260906050016 72 67 2.0 5.0 0.00 0.00 0.00 45 1009.8
20260906045536 72 67 3.0 6.0 0.00 0.00 0.00 46 1010.0
20260906045016 71 67 1.0 5.0 0.00 0.00 0.00 47 1009.8
20260906044516 70 225 2.0 4.0 0.00 0.00 0.00 47 1009.6
20260906044036 69 225 4.0 6.0 0.00 0.00 0.00 49 1009.3
20260906043516 69 247 6.0 6.0 0.00 0.00 0.00 48 1009.3
20260906043016 71 247 2.0 5.0 0.00 0.00 0.00 45 1009.2
20260906042516 72 0.0 2.0 0.00 0.00 0.00 45 1009.1
20260906042016 71 0.0 2.0 0.00 0.00 0.00 45 1009.0
20260906041516 72 0.0 2.0 0.00 0.00 0.00 45 1008.8
20260906041016 73 315 1.0 3.0 0.00 0.00 0.00 43 1008.7
20260906040517 73 270 2.0 3.0 0.00 0.00 0.00 42 1008.8
20260906040016 73 337 2.0 4.0 0.00 0.00 0.00 42 1008.4
20260906035516 73 0.0 2.0 0.00 0.00 0.00 42 1008.2
20260906035036 73 315 1.0 3.0 0.00 0.00 0.00 43 1008.1
20260906034516 73 0 2.0 4.0 0.00 0.00 0.00 43 1008.5
20260906034136 73 22 1.0 2.0 0.00 0.00 0.00 42 1008.5
20260906033516 74 292 1.0 3.0 0.00 0.00 0.00 41 1008.5
20260906033036 74 292 1.0 3.0 0.00 0.00 0.00 41 1008.5
20260906032516 75 292 2.0 3.0 0.00 0.00 0.00 40 1008.5
20260906032016 74 0 1.0 2.0 0.00 0.00 0.00 41 1008.3
20260906031515 75 0 2.0 3.0 0.00 0.00 0.00 42 1008.3
20260906031015 75 0 2.0 6.0 0.00 0.00 0.00 43 1008.3
20260906030516 75 0 2.0 5.0 0.00 0.00 0.00 42 1008.1
20260906030016 75 0 2.0 6.0 0.00 0.00 0.00 41 1008.0
20260906025516 75 337 2.0 5.0 0.00 0.00 0.00 42 1008.0
20260906025016 75 0 2.0 4.0 0.00 0.00 0.00 41 1008.0
20260906024516 76 0.0 2.0 0.00 0.00 0.00 39 1007.8
20260906024016 76 22 3.0 6.0 0.00 0.00 0.00 37 1007.7
20260906023515 75 0.0 3.0 0.00 0.00 0.00 39 1007.7
20260906023016 76 0.0 0.0 0.00 0.00 0.00 38 1007.7
20260906022516 77 0.0 0.0 0.00 0.00 0.00 37 1007.9
20260906022016 78 0.0 0.0 0.00 0.00 0.00 35 1007.7
20260906021516 79 0.0 2.0 0.00 0.00 0.00 34 1007.6
20260906021016 79 0 1.0 2.0 0.00 0.00 0.00 34 1007.3
20260906020516 79 0 3.0 5.0 0.00 0.00 0.00 34 1007.3
20260906020016 79 22 4.0 7.0 0.00 0.00 0.00 34 1007.3
20260906015516 81 337 2.0 7.0 0.00 0.00 0.00 31 1007.3
20260906015016 81 292 4.0 6.0 0.00 0.00 0.00 31 1007.3
20260906014515 81 292 5.0 8.0 0.00 0.00 0.00 31 1006.9
20260906014037 81 292 4.0 9.0 0.00 0.00 0.00 31 1006.8
20260906013518 81 292 4.0 9.0 0.00 0.00 0.00 31 1006.6
20260906013018 80 315 2.0 7.0 0.00 0.00 0.00 32 1006.5
20260906012515 80 315 1.0 4.0 0.00 0.00 0.00 31 1006.6
20260906012017 81 315 1.0 4.0 0.00 0.00 0.00 31 1006.6
20260906011537 83 337 3.0 6.0 0.00 0.00 0.00 30 1006.7
20260906011018 83 292 6.0 9.0 0.00 0.00 0.00 29 1006.5
20260906010536 84 292 6.0 9.0 0.00 0.00 0.00 29 1006.5
20260906010018 84 270 6.0 10.0 0.00 0.00 0.00 29 1006.6
20260906005517 84 270 7.0 12.0 0.00 0.00 0.00 28 1006.7
20260906005018 85 270 7.0 13.0 0.00 0.00 0.00 28 1006.7
20260906004537 85 270 7.0 12.0 0.00 0.00 0.00 28 1008.5
20260906004038 85 270 7.0 13.0 0.00 0.00 0.00 27 1006.9
20260906003517 86 292 7.0 13.0 0.00 0.00 0.00 27 1006.8
20260906003015 86 270 7.0 10.0 0.00 0.00 0.00 27 1006.9
20260906002517 86 270 7.0 10.0 0.00 0.00 0.00 27 1006.8
20260906002017 86 270 6.0 10.0 0.00 0.00 0.00 26 1006.8
20260906001517 86 270 4.0 7.0 0.00 0.00 0.00 26 1006.8
20260906001017 86 270 5.0 7.0 0.00 0.00 0.00 26 1006.8
20260906000518 86 270 4.0 9.0 0.00 0.00 0.00 26 1007.0
20260906000018 86 270 5.0 7.0 0.00 0.00 0.00 26 1007.1
20260905235518 87 270 5.0 9.0 0.00 0.00 0.00 26 1007.0
20260905235017 87 270 5.0 8.0 0.00 0.00 0.00 25 1006.9
20260905234518 87 270 4.0 6.0 0.00 0.00 0.00 26 1006.9
20260905234017 87 270 5.0 9.0 0.00 0.00 0.00 25 1006.8
20260905233517 88 270 3.0 6.0 0.00 0.00 0.00 26 1006.9
20260905233037 89 0.0 0.0 0.00 0.00 0.00 24 1006.9
20260905232517 90 270 2.0 4.0 0.00 0.00 0.00 22 1006.8
20260905232037 90 22 2.0 4.0 0.00 0.00 0.00 23 1006.7
20260905231518 90 0 3.0 5.0 0.00 0.00 0.00 23 1006.7
20260905231018 92 22 3.0 10.0 0.00 0.00 0.00 24 1006.7
20260905230517 91 112 2.0 4.0 0.00 0.00 0.00 24 1006.7
20260905230017 89 112 1.0 3.0 0.00 0.00 0.00 23 1006.6
20260905225537 89 270 2.0 4.0 0.00 0.00 0.00 24 1006.4
20260905225038 90 270 3.0 5.0 0.00 0.00 0.00 23 1006.4
20260905224518 91 270 3.0 5.0 0.00 0.00 0.00 23 1006.5
20260905224017 91 270 3.0 6.0 0.00 0.00 0.00 24 1006.7
20260905223517 91 270 3.0 7.0 0.00 0.00 0.00 21 1006.7
20260905223017 92 247 2.0 6.0 0.00 0.00 0.00 23 1006.8
20260905222517 90 315 1.0 2.0 0.00 0.00 0.00 26 1006.8
20260905222018 89 315 1.0 3.0 0.00 0.00 0.00 25 1006.7
20260905221517 90 0 2.0 4.0 0.00 0.00 0.00 25 1006.7
20260905221017 90 337 1.0 3.0 0.00 0.00 0.00 25 1006.6
20260905220518 90 0.0 1.0 0.00 0.00 0.00 24 1006.6
20260905220019 90 0 2.0 4.0 0.00 0.00 0.00 22 1006.7
20260905215517 91 337 3.0 5.0 0.00 0.00 0.00 22 1006.9
20260905215017 91 45 2.0 4.0 0.00 0.00 0.00 23 1006.9
20260905214518 92 315 2.0 6.0 0.00 0.00 0.00 22 1007.2
20260905214017 93 0 3.0 8.0 0.00 0.00 0.00 22 1007.5
20260905213517 93 22 4.0 10.0 0.00 0.00 0.00 21 1007.5
20260905213017 94 0 4.0 7.0 0.00 0.00 0.00 22 1007.5
20260905212517 94 22 5.0 10.0 0.00 0.00 0.00 22 1007.4
20260905212037 94 0 5.0 10.0 0.00 0.00 0.00 22 1007.4
20260905211518 93 337 3.0 6.0 0.00 0.00 0.00 20 1007.4
20260905211017 93 0 2.0 5.0 0.00 0.00 0.00 21 1007.5
20260905210517 93 45 3.0 7.0 0.00 0.00 0.00 20 1007.6
20260905210017 93 337 3.0 10.0 0.00 0.00 0.00 21 1007.8
20260905205557 91 90 2.0 5.0 0.00 0.00 0.00 22 1007.9
20260905205017 91 90 1.0 3.0 0.00 0.00 0.00 21 1007.8
20260905204517 91 90 3.0 5.0 0.00 0.00 0.00 23 1007.8
20260905204037 91 22 2.0 8.0 0.00 0.00 0.00 22 1007.9
20260905203518 92 45 3.0 6.0 0.00 0.00 0.00 20 1007.9
20260905203017 92 90 4.0 9.0 0.00 0.00 0.00 20 1007.9
20260905202517 93 90 3.0 6.0 0.00 0.00 0.00 21 1008.1
20260905202017 93 112 4.0 8.0 0.00 0.00 0.00 21 1008.1
20260905201517 92 90 5.0 9.0 0.00 0.00 0.00 22 1008.2
20260905201019 92 90 6.0 12.0 0.00 0.00 0.00 22 1008.4
20260905200517 91 45 4.0 8.0 0.00 0.00 0.00 23 1008.3
20260905200037 91 337 4.0 9.0 0.00 0.00 0.00 23 1008.4
20260905195518 91 22 1.0 5.0 0.00 0.00 0.00 23 1008.4
20260905195017 91 90 4.0 8.0 0.00 0.00 0.00 23 1008.4
20260905194537 91 90 7.0 14.0 0.00 0.00 0.00 23 1008.4
20260905194017 91 90 8.0 11.0 0.00 0.00 0.00 22 1008.5
20260905193517 91 112 3.0 9.0 0.00 0.00 0.00 24 1008.6
20260905193017 90 90 3.0 10.0 0.00 0.00 0.00 24 1008.5
20260905192517 90 202 3.0 6.0 0.00 0.00 0.00 25 1008.7
20260905192017 91 67 4.0 9.0 0.00 0.00 0.00 23 1008.7
20260905191517 91 45 3.0 8.0 0.00 0.00 0.00 24 1008.7
20260905191017 90 112 4.0 11.0 0.00 0.00 0.00 25 1008.7
20260905190558 90 90 6.0 11.0 0.00 0.00 0.00 25 1008.8
20260905190037 90 112 5.0 11.0 0.00 0.00 0.00 24 1008.8
20260905185517 90 90 4.0 9.0 0.00 0.00 0.00 24 1008.8
20260905185017 89 135 4.0 12.0 0.00 0.00 0.00 25 1008.7
20260905184516 90 22 4.0 8.0 0.00 0.00 0.00 25 1008.8
20260905184017 89 112 2.0 8.0 0.00 0.00 0.00 25 1008.8
20260905183517 89 112 5.0 7.0 0.00 0.00 0.00 24 1009.0
20260905183017 89 90 2.0 7.0 0.00 0.00 0.00 25 1009.3
20260905182517 89 112 5.0 10.0 0.00 0.00 0.00 26 1009.4
20260905182018 88 112 6.0 10.0 0.00 0.00 0.00 27 1009.4
20260905181516 87 90 5.0 8.0 0.00 0.00 0.00 30 1009.3
20260905181016 87 90 6.0 9.0 0.00 0.00 0.00 27 1009.3
20260905180517 87 112 5.0 10.0 0.00 0.00 0.00 27 1009.5
20260905180037 87 112 4.0 11.0 0.00 0.00 0.00 28 1009.6
20260905175518 87 90 4.0 7.0 0.00 0.00 0.00 26 1009.7
20260905175018 87 112 5.0 9.0 0.00 0.00 0.00 25 1009.8
20260905174537 86 90 4.0 8.0 0.00 0.00 0.00 26 1009.8
20260905174016 86 112 6.0 11.0 0.00 0.00 0.00 28 1009.9
20260905173537 86 112 7.0 10.0 0.00 0.00 0.00 28 1009.9
20260905173017 84 112 7.0 11.0 0.00 0.00 0.00 30 1009.8
20260905172516 84 90 5.0 9.0 0.00 0.00 0.00 31 1009.9
20260905172017 84 90 5.0 9.0 0.00 0.00 0.00 30 1009.8
20260905171518 84 90 5.0 11.0 0.00 0.00 0.00 32 1009.7
20260905171017 84 90 5.0 11.0 0.00 0.00 0.00 31 1009.9
20260905170517 84 90 4.0 8.0 0.00 0.00 0.00 32 1009.8
20260905170016 83 112 5.0 9.0 0.00 0.00 0.00 34 1009.9
20260905165537 82 112 5.0 10.0 0.00 0.00 0.00 35 1009.8
20260905165017 82 112 4.0 7.0 0.00 0.00 0.00 35 1009.9
20260905164517 81 112 4.0 10.0 0.00 0.00 0.00 35 1009.9
20260905164037 81 112 5.0 8.0 0.00 0.00 0.00 35 1009.9
20260905163516 80 90 3.0 8.0 0.00 0.00 0.00 36 1009.8
20260905163037 80 90 3.0 6.0 0.00 0.00 0.00 36 1009.9
20260905162517 79 90 2.0 5.0 0.00 0.00 0.00 38 1009.7
20260905162016 79 112 3.0 5.0 0.00 0.00 0.00 38 1009.9
20260905161516 79 112 4.0 7.0 0.00 0.00 0.00 37 1009.9
20260905161017 79 90 3.0 6.0 0.00 0.00 0.00 39 1009.9
20260905160537 79 112 4.0 7.0 0.00 0.00 0.00 39 1009.8
20260905160037 78 112 4.0 8.0 0.00 0.00 0.00 40 1009.7
20260905155516 77 90 4.0 6.0 0.00 0.00 0.00 40 1009.6
20260905155017 78 112 5.0 10.0 0.00 0.00 0.00 40 1009.4
20260905154516 78 112 7.0 10.0 0.00 0.00 0.00 39 1009.3
20260905154016 78 90 6.0 9.0 0.00 0.00 0.00 41 1009.6
20260905153519 78 112 6.0 9.0 0.00 0.00 0.00 38 1009.5
20260905153036 78 112 5.0 9.0 0.00 0.00 0.00 38 1009.4
20260905152536 78 90 4.0 7.0 0.00 0.00 0.00 38 1009.4
20260905152057 78 135 3.0 7.0 0.00 0.00 0.00 37 1009.3
20260905151538 77 112 3.0 5.0 0.00 0.00 0.00 36 1009.2
20260905151017 77 112 3.0 4.0 0.00 0.00 0.00 37 1009.1
20260905150516 76 112 3.0 4.0 0.00 0.00 0.00 37 1009.0
20260905150036 76 135 3.0 4.0 0.00 0.00 0.00 39 1009.0
20260905145516 76 135 2.0 4.0 0.00 0.00 0.00 38 1009.0
20260905145016 76 225 2.0 3.0 0.00 0.00 0.00 39 1009.2
20260905144516 75 225 1.0 3.0 0.00 0.00 0.00 37 1009.1
20260905144017 75 225 2.0 4.0 0.00 0.00 0.00 38 1009.1
20260905143537 74 202 1.0 2.0 0.00 0.00 0.00 39 1009.1
20260905143017 74 202 3.0 7.0 0.00 0.00 0.00 39 1009.0
20260905142557 74 225 4.0 7.0 0.00 0.00 0.00 38 1009.1
20260905142016 74 225 5.0 6.0 0.00 0.00 0.00 39 1009.3
20260905141516 72 225 3.0 6.0 0.00 0.00 0.00 41 1009.3
20260905141016 71 225 1.0 3.0 0.00 0.00 0.00 46 1009.3
20260905140516 69 225 1.0 1.0 0.00 0.00 0.00 54 1009.4
20260905140017 69 225 1.0 2.0 0.00 0.00 0.00 50 1009.2
20260905135516 70 0.0 1.0 0.00 0.00 0.00 49 1009.3
20260905135016 69 0.0 2.0 0.00 0.00 0.00 47 1009.1
20260905134516 67 225 1.0 2.0 0.00 0.00 0.00 51 1009.1
20260905134017 64 0.0 0.0 0.00 0.00 0.00 59 1009.0
20260905133516 62 0.0 0.0 0.00 0.00 0.00 61 1008.9
20260905133016 61 0.0 0.0 0.00 0.00 0.00 60 1008.8
20260905132536 60 0.0 0.0 0.00 0.00 0.00 59 1008.7
20260905132016 60 0.0 0.0 0.00 0.00 0.00 63 1008.7
20260905131516 60 0.0 2.0 0.00 0.00 0.00 61 1008.8
20260905131016 59 0.0 0.0 0.00 0.00 0.00 60 1008.7
20260905130536 57 0.0 1.0 0.00 0.00 0.00 68 1008.5
20260905130017 56 0.0 1.0 0.00 0.00 0.00 66 1008.4
20260905125517 56 0.0 0.0 0.00 0.00 0.00 67 1008.4
20260905125036 55 0.0 0.0 0.00 0.00 0.00 70 1008.3
20260905124350 56 0.0 2.0 0.00 0.00 0.00 66 1008.2
20260905124348 57 0.0 0.0 0.00 0.00 0.00 62 1008.6